Weather reports worldwide

Advertisment
Hohenfels, Germany (10775): temperature & dewpoint: 16.01.2019 04:00:00 - 22.01.2019 04:00:00 (CET)Hohenfels, Germany (10775): wind speed: 16.01.2019 04:00:00 - 22.01.2019 04:00:00 (CET)Hohenfels, Germany (10775): wind direction: 16.01.2019 04:00:00 - 22.01.2019 04:00:00 (CET)Hohenfels, Germany (10775): reduced air pressure: 16.01.2019 04:00:00 - 22.01.2019 04:00:00 (CET)Hohenfels, Germany (10775): visibility: 16.01.2019 04:00:00 - 22.01.2019 04:00:00 (CET)Hohenfels, Germany (10775): precipitation: 16.01.2019 04:00:00 - 22.01.2019 04:00:00 (CET)
Date & Time tt [°C] td [°C] ff [km/h] ff [kn] dd ppp [hPa] vv [km] rr [mm]
22.01.2019 04:00:00 -9,0 -9,3 0 0 N 1018,9 10 -
22.01.2019 03:00:00 -10,3 -10,6 0 0 N 1019,6 10 -
22.01.2019 02:00:00 -11,3 -11,6 0 0 N 1020,2 10 -
22.01.2019 01:00:00 -11,0 -11,3 0 0 N 1020,8 10 -
22.01.2019 00:00:00 -10,0 -10,2 0 0 N - 10 -
21.01.2019 23:00:00 -9,7 -9,9 5 3 NNW - 10 -
21.01.2019 22:00:00 -9,0 -9,2 0 0 N - 10 -
21.01.2019 21:00:00 -7,9 -8,0 0 0 N - 10 -
21.01.2019 20:00:00 -7,2 -7,5 0 0 N - 10 -
21.01.2019 19:00:00 -5,9 -6,2 0 0 N - 10 -
21.01.2019 18:00:00 -4,7 -5,4 0 0 N - 10 -
21.01.2019 17:00:00 -3,2 -4,6 5 3 W - 10 -
21.01.2019 16:00:00 -0,5 -3,5 0 0 N - 10 -
21.01.2019 15:00:00 -0,8 -4,0 0 0 N - 10 -
21.01.2019 14:00:00 -0,6 -3,8 5 3 S - 10 -
21.01.2019 13:00:00 -1,2 -4,2 8 4 E - 10 -
21.01.2019 12:00:00 -2,0 -4,0 8 4 ESE - 10 -
21.01.2019 11:00:00 -3,4 -4,4 0 0 N - 10 -
21.01.2019 10:00:00 -7,0 -7,3 0 0 N - 10 -
21.01.2019 09:00:00 -9,8 -10,1 0 0 N - 10 -
21.01.2019 08:00:00 -10,7 -11,0 0 0 N - 10 -
21.01.2019 07:00:00 -10,2 -10,5 0 0 N - 10 -
21.01.2019 06:00:00 -10,2 -10,4 0 0 N - 10 -
21.01.2019 05:00:00 -9,0 -9,3 0 0 N - 10 -
21.01.2019 04:00:00 -9,4 -9,7 0 0 N - 10 -
21.01.2019 03:00:00 -9,4 -9,7 0 0 N - 10 -
21.01.2019 02:00:00 -9,0 -9,2 0 0 N - 10 -
21.01.2019 01:00:00 -8,2 -8,3 0 0 N - 10 -
21.01.2019 00:00:00 -6,7 -6,8 0 0 N - 10 -
20.01.2019 23:00:00 -5,5 -5,8 0 0 N - 10 -
20.01.2019 22:00:00 -3,5 -4,9 0 0 N - 10 -
20.01.2019 21:00:00 -3,0 -4,7 0 0 N - 10 -
20.01.2019 20:00:00 -3,1 -4,8 0 0 N - 10 -
20.01.2019 19:00:00 -3,1 -4,8 5 3 ENE - 10 -
20.01.2019 18:00:00 -3,3 -4,7 5 3 NNE - 10 -
20.01.2019 17:00:00 -3,5 -4,6 0 0 N - 10 -
20.01.2019 16:00:00 -3,7 -4,5 8 4 ENE - 10 -
20.01.2019 15:00:00 -3,7 -4,5 5 3 N - 10 -
20.01.2019 14:00:00 -3,5 -4,2 8 4 NNE - 10 -
20.01.2019 13:00:00 -4,0 -4,7 5 3 NE - 10 -
20.01.2019 12:00:00 -4,5 -4,8 8 4 NE - 10 -
20.01.2019 11:00:00 -5,0 -6,0 0 0 N - 10 -
20.01.2019 10:00:00 -9,0 -9,0 0 0 N - 10 -
20.01.2019 09:00:00 -10,6 -10,9 0 0 N - 10 -
20.01.2019 08:00:00 -10,9 -11,2 0 0 N - 10 -
20.01.2019 07:00:00 -11,2 -11,5 0 0 N - 10 -
20.01.2019 06:00:00 -10,7 -11,0 0 0 N - 10 -
20.01.2019 05:00:00 -10,8 -11,1 0 0 N - 10 -
20.01.2019 04:00:00 -10,3 -10,6 0 0 N - 10 -
20.01.2019 03:00:00 -10,1 -10,3 0 0 N - 10 -
20.01.2019 02:00:00 -9,5 -9,7 0 0 N - 10 -
20.01.2019 01:00:00 -9,3 -9,5 0 0 N 1017,2 10 -
20.01.2019 00:00:00 -8,7 -8,9 0 0 N 1017,2 10 -
19.01.2019 23:00:00 -7,8 -7,9 0 0 N 1017,5 10 -
19.01.2019 22:00:00 -7,7 -7,8 5 3 W 1017,8 10 -
19.01.2019 21:00:00 -6,4 -6,7 5 3 W 1018,0 10 -
19.01.2019 20:00:00 -6,0 -6,5 0 0 N 1018,0 10 -
19.01.2019 19:00:00 -4,6 -6,1 0 0 N 1018,0 10 -
19.01.2019 18:00:00 -2,7 -6,4 0 0 N 1017,5 10 -
19.01.2019 17:00:00 -1,4 -6,4 5 3 ESE 1017,3 10 -
19.01.2019 16:00:00 0,4 -6,7 11 6 E 1017,7 10 -
19.01.2019 15:00:00 1,1 -5,6 9 5 E 1017,8 10 -
19.01.2019 14:00:00 0,5 -5,3 13 7 NE 1018,1 10 -
19.01.2019 13:00:00 -0,3 -4,4 9 5 ESE 1019,2 10 -
19.01.2019 12:00:00 -1,7 -4,5 9 5 ENE 1020,1 10 -
19.01.2019 11:00:00 -3,0 -4,1 0 0 N 1020,4 10 -
19.01.2019 10:00:00 -5,3 -5,4 0 0 N 1021,0 10 -
19.01.2019 09:00:00 -8,3 -8,4 0 0 N 1021,4 10 -
19.01.2019 08:00:00 -9,0 -9,2 0 0 N 1021,4 10 -
19.01.2019 07:00:00 -8,1 -8,2 0 0 N 1021,2 10 -
19.01.2019 06:00:00 -7,8 -7,9 0 0 N 1021,3 10 -
19.01.2019 05:00:00 -7,7 -7,8 0 0 N 1021,3 10 -
19.01.2019 04:00:00 -7,4 -7,5 0 0 N 1021,2 10 -
19.01.2019 03:00:00 -7,1 -7,2 0 0 N 1021,6 10 -
19.01.2019 02:00:00 -7,2 -7,3 0 0 N 1021,6 10 -
19.01.2019 01:00:00 -6,9 -7,0 0 0 N 1022,2 10 -
19.01.2019 00:00:00 -6,5 -6,6 0 0 N 1022,2 10 -
18.01.2019 23:00:00 -5,8 -5,9 0 0 N 1022,2 10 -
18.01.2019 22:00:00 -5,3 -5,4 0 0 N 1022,6 10 -
18.01.2019 21:00:00 -5,1 -5,2 0 0 N 1022,6 10 -
18.01.2019 20:00:00 -4,7 -4,8 0 0 N 1022,9 10 -
18.01.2019 19:00:00 -4,0 -4,1 5 3 W 1022,4 10 -
18.01.2019 18:00:00 -3,0 -3,1 0 0 N 1022,1 10 -
18.01.2019 17:00:00 -1,9 -2,7 5 3 W 1021,8 10 -
18.01.2019 16:00:00 0,6 -2,5 0 0 N 1021,4 10 -
18.01.2019 15:00:00 0,7 -2,9 8 4 SW 1021,0 10 -
18.01.2019 14:00:00 1,3 -1,1 5 3 SW 1020,7 10 -
18.01.2019 13:00:00 0,4 -2,2 11 6 W 1020,9 10 -
18.01.2019 12:00:00 0,4 -1,4 13 7 W 1020,9 10 -
18.01.2019 11:00:00 0,3 -0,9 11 6 W 1020,7 10 -
18.01.2019 10:00:00 -0,2 -0,3 8 4 W 1020,0 10 -
18.01.2019 09:00:00 -0,5 -0,6 18 10 W 1018,6 10 0,0
18.01.2019 08:00:00 -0,5 -1,1 18 10 W 1017,4 10 -
18.01.2019 07:00:00 -0,2 -0,9 21 11 W 1016,4 10 -
18.01.2019 06:00:00 0,0 -1,0 16 9 W 1015,3 10 0,0
18.01.2019 05:00:00 0,1 0,0 16 9 W 1014,6 10 0,0
18.01.2019 04:00:00 0,1 0,0 16 9 W 1014,0 10 0,0
18.01.2019 03:00:00 0,1 0,0 15 8 W 1013,1 10 -
18.01.2019 02:00:00 0,2 0,1 11 6 W 1012,7 10 0,0
18.01.2019 01:00:00 0,7 0,6 9 5 WNW 1012,2 10 0,0
18.01.2019 00:00:00 0,7 0,6 16 9 W 1011,2 10 0,3
17.01.2019 23:00:00 1,5 1,4 21 11 W 1010,7 10 0,0
17.01.2019 22:00:00 1,5 1,4 8 4 WSW 1010,3 10 0,3
17.01.2019 21:00:00 2,0 2,0 16 9 W 1009,9 10 0,8
17.01.2019 20:00:00 3,1 3,0 13 7 SW 1008,6 10 -
17.01.2019 19:00:00 3,6 3,5 13 7 SSW 1007,9 10 0,3
17.01.2019 18:00:00 4,7 3,2 13 7 SW 1007,0 10 -
17.01.2019 17:00:00 4,8 3,8 13 7 SW 1006,7 10 -
17.01.2019 16:00:00 5,0 4,0 22 12 WSW - 10 0,0
17.01.2019 15:00:00 6,7 5,5 15 8 SW - 10 0,0
17.01.2019 14:00:00 6,8 5,1 11 6 SW - 10 0,0
17.01.2019 13:00:00 7,1 5,2 11 6 SW - 10 -
17.01.2019 12:00:00 6,1 4,6 9 5 SSW 1006,6 10 0,0
17.01.2019 11:00:00 4,9 4,0 15 8 SW 1007,3 10 0,0
17.01.2019 10:00:00 3,9 3,5 8 4 SSW 1007,3 10 0,0
17.01.2019 09:00:00 2,7 2,3 0 0 N 1008,0 10 -
17.01.2019 08:00:00 3,0 2,1 5 3 SSW 1008,1 10 -
17.01.2019 07:00:00 2,8 1,8 8 4 SSW 1008,5 10 -
17.01.2019 06:00:00 3,2 1,7 5 3 SSW 1007,8 10 -
17.01.2019 05:00:00 2,5 1,0 5 3 SSW 1008,3 10 -
17.01.2019 04:00:00 1,3 0,1 8 4 S 1008,6 10 -
17.01.2019 03:00:00 - - - - - - - -
17.01.2019 02:00:00 - - - - - - - -
17.01.2019 01:00:00 0,3 -0,3 5 3 WSW 1009,2 10 -
17.01.2019 00:00:00 0,9 0,0 0 0 N 1009,6 10 -
16.01.2019 23:00:00 1,9 0,6 5 3 SW 1010,0 10 -
16.01.2019 22:00:00 1,5 0,6 0 0 N 1010,3 10 -
16.01.2019 21:00:00 -0,2 -0,3 0 0 N 1011,1 10 -
16.01.2019 20:00:00 -0,1 -0,2 0 0 N 1011,4 10 -
16.01.2019 19:00:00 0,3 0,2 0 0 N 1012,1 10 -
16.01.2019 18:00:00 1,9 1,5 0 0 N 1012,2 10 -
16.01.2019 17:00:00 3,2 1,9 0 0 N 1012,4 10 -
16.01.2019 16:00:00 4,2 2,5 0 0 N 1013,1 10 -
16.01.2019 15:00:00 5,0 2,9 5 3 S 1013,2 10 -
16.01.2019 14:00:00 5,0 3,0 5 3 SSE 1013,5 10 -
16.01.2019 13:00:00 4,8 2,7 9 5 SSW 1014,6 10 -
16.01.2019 12:00:00 4,3 2,5 8 4 SW 1015,6 10 -
16.01.2019 11:00:00 3,4 1,8 8 4 WSW 1016,8 10 -
16.01.2019 10:00:00 3,3 2,0 8 4 SW - 10 -
16.01.2019 09:00:00 2,9 1,9 9 5 SW - 10 -
16.01.2019 08:00:00 2,8 1,9 8 4 SW - 10 -
16.01.2019 07:00:00 2,9 2,2 9 5 WSW - 10 -
16.01.2019 06:00:00 2,9 2,5 9 5 WSW 1017,2 10 -
16.01.2019 05:00:00 2,9 2,5 8 4 SW 1017,5 10 -
16.01.2019 04:00:00 2,9 2,8 11 6 WSW 1017,9 10 -

tt = temperature
td = dewpoint
ff = wind speed
dd = wind direction
ppp = reduced air pressure
vv = visibility
rr = precipitation

Next stations